QPF
0.00 0.00 0.03 0.06 0.04 0.06 0.09 0.06 0.04 0.00 0.00 0.00 0.00 0.00 0.00 0.00 0.00 0.00 0.00 0.00 0.00 0.00 0.00 0.00 0.00 0.00 0.00 0.00 0.00 0.00 0.00 0.00 0.00 0.00 0.00 0.00 0.00 0.00
0.00 0.01 0.01 0.03 0.08 0.05 0.03 0.02 0.02 0.02 0.01 0.00 0.00 0.00 0.00 0.00 0.00 0.00 0.00 0.00 0.00 0.00 0.00 0.00 0.00 0.00 0.00 0.00 0.00 0.00 0.00 0.00 0.00 0.00 0.00 0.00 0.00 0.00
0.02 0.01 0.01 0.00 0.00 0.00 0.00 0.00 0.00 0.00 0.01 0.00 0.00 0.00 0.00 0.00 0.00 0.00 0.00 0.00 0.00 0.00 0.00 0.00 0.00 0.00 0.00 0.00 0.00 0.00 0.00 0.00 0.00 0.00 0.00 0.00 0.00 0.00
0.01 0.00 0.00 0.00 0.00 0.00 0.00 0.00 0.00 0.00 0.00 0.00 0.00 0.00 0.00 0.00 0.00 0.00 0.00 0.00 0.00 0.00 0.00 0.00 0.00 0.00 0.00 0.00 0.00 0.00 0.00 0.00 0.00 0.00 0.00 0.00 0.00 0.00
0.00 0.00 0.00 0.00 0.00 0.00 0.00 0.00 0.00 0.00 0.00 0.00 0.00 0.00 0.00 0.00 0.00 0.00 0.00 0.00 0.00 0.00 0.00 0.00 0.00 0.00 0.00 0.00 0.00 0.00 0.00 0.00 0.00 0.00 0.00 0.00 0.00 0.00
0.00 0.00 0.00 0.00 0.00 0.00 0.00 0.00 0.00 0.00 0.00 0.00 0.00 0.00 0.00 0.00 0.00 0.00 0.00 0.00 0.00 0.00 0.00 0.00 0.00 0.00 0.00 0.00 0.00 0.00 0.00 0.00 0.00 0.00 0.00 0.00 0.00 0.00
0.00 0.00 0.00 0.00 0.00 0.00 0.00 0.00 0.00 0.00 0.00 0.00 0.00 0.00 0.00 0.00 0.00 0.00 0.00 0.00 0.00 0.00 0.00 0.00 0.00 0.00 0.00 0.00 0.00 0.00 0.00 0.00 0.00 0.00 0.00 0.00 0.00 0.00
0.00 0.00 0.00 0.00 0.00 0.00 0.00 0.00 0.00 0.00 0.00 0.00 0.00 0.00 0.00 0.00 0.00 0.00 0.00 0.00 0.00 0.00 0.00 0.00 0.00 0.00 0.00 0.00 0.00 0.00 0.00 0.00 0.00 0.00 0.00 0.00 0.00 0.00
0.00 0.00 0.00 0.00 0.00 0.00 0.00 0.00 0.00 0.00 0.00 0.00 0.00 0.00 0.00 0.00 0.00 0.00 0.00 0.00 0.00 0.00 0.00 0.00 0.00 0.00 0.00 0.00 0.00 0.00 0.00 0.00 0.00 0.00 0.00 0.00 0.00 0.00
0.00 0.00 0.00 0.00 0.00 0.00 0.00 0.00 0.00 0.00 0.00 0.00 0.00 0.00 0.00 0.00 0.00 0.00 0.00 0.00 0.00 0.00 0.00 0.00 0.00 0.00 0.00 0.00 0.00 0.00 0.00 0.00 0.00 0.00 0.00 0.00 0.00 0.00
0.00 0.00 0.00 0.00 0.00 0.00 0.00 0.00 0.00 0.00 0.00 0.00 0.00 0.00 0.00 0.00 0.00 0.00 0.00 0.00 0.00 0.00 0.00 0.00 0.00 0.00 0.00 0.00 0.00 0.00 0.00 0.00 0.00 0.00 0.00 0.00 0.00 0.00
0.00 0.00 0.00 0.00 0.00 0.00 0.00 0.00 0.00 0.00 0.00 0.00 0.00 0.00 0.00 0.00 0.00 0.00 0.00 0.00 0.00 0.00 0.00 0.00 0.00 0.00 0.00 0.00 0.00 0.00 0.00 0.00 0.00 0.00 0.00 0.00 0.00 0.00
0.00 0.00 0.00 0.00 0.00 0.00 0.00 0.00 0.00 0.00 0.00 0.00 0.00 0.00 0.00 0.00 0.00 0.00 0.00 0.00 0.00 0.00 0.00 0.00 0.00 0.00 0.00 0.00 0.00 0.00 0.00 0.00 0.00 0.00 0.00 0.00 0.00 0.00
0.00 0.00 0.00 0.00 0.00 0.00 0.00 0.00 0.00 0.00 0.00 0.00 0.00 0.00 0.00 0.00 0.00 0.00 0.00 0.00 0.00 0.00 0.00 0.00 0.00 0.00 0.00 0.00 0.00 0.00 0.00 0.00 0.00 0.00 0.00 0.00 0.00 0.00
0.00 0.00 0.00 0.00 0.00 0.00 0.00 0.00 0.00 0.00 0.00 0.00 0.00 0.00 0.00 0.00 0.00 0.00 0.00 0.00 0.00 0.00 0.00 0.00 0.00 0.00 0.00 0.00 0.00 0.00 0.00 0.00 0.00 0.00 0.00 0.00 0.00 0.00
0.00 0.00 0.00 0.00 0.00 0.00 0.00 0.00 0.00 0.00 0.00 0.00 0.00 0.00 0.00 0.00 0.00 0.00 0.00 0.00 0.00 0.00 0.00 0.00 0.00 0.00 0.00 0.00 0.00 0.00 0.00 0.00 0.00 0.00 0.00 0.00 0.00 0.00
0.00 0.00 0.00 0.00 0.00 0.00 0.00 0.00 0.00 0.00 0.00 0.00 0.00 0.00 0.00 0.00 0.00 0.00 0.00 0.00 0.00 0.00 0.00 0.00 0.00 0.00 0.00 0.00 0.00 0.00 0.00 0.00 0.00 0.00 0.00 0.00 0.00 0.00
0.00 0.00 0.00 0.00 0.00 0.00 0.00 0.00 0.00 0.00 0.00 0.00 0.00 0.00 0.00 0.00 0.00 0.00 0.00 0.00 0.00 0.00 0.00 0.00 0.00 0.00 0.00 0.00 0.00 0.00 0.00 0.00 0.00 0.00 0.00 0.00 0.00 0.00
0.00 0.00 0.00 0.00 0.00 0.00 0.00 0.00 0.00 0.00 0.00 0.00 0.00 0.00 0.00 0.00 0.00 0.00 0.00 0.00 0.00 0.00 0.00 0.00 0.00 0.00 0.00 0.00 0.00 0.00 0.00 0.00 0.00 0.00 0.00 0.00 0.00 0.00
0.00 0.00 0.00 0.00 0.00 0.00 0.00 0.00 0.00 0.00 0.00 0.00 0.00 0.00 0.00 0.00 0.00 0.00 0.00 0.00 0.00 0.00 0.00 0.00 0.00 0.00 0.00 0.00 0.00 0.00 0.00 0.00 0.00 0.00 0.00 0.00 0.00 0.00
0.00 0.00 0.00 0.00 0.00 0.00 0.00 0.00 0.00 0.00 0.00 0.00 0.00 0.00 0.00 0.00 0.00 0.00 0.00 0.00 0.00 0.00 0.00 0.00 0.00 0.00 0.00 0.00 0.00 0.00 0.00 0.00 0.00 0.00 0.00 0.00 0.00 0.00
0.00 0.00 0.00 0.00 0.00 0.00 0.00 0.00 0.00 0.00 0.00 0.00 0.00 0.00 0.00 0.00 0.00 0.00 0.00 0.00 0.00 0.00 0.00 0.00 0.00 0.00 0.00 0.00 0.00 0.00 0.00 0.00 0.00 0.00 0.00 0.00 0.00 0.00
0.00 0.00 0.00 0.00 0.00 0.00 0.00 0.00 0.00 0.00 0.00 0.00 0.00 0.00 0.00 0.00 0.00 0.00 0.00 0.00 0.00 0.00 0.00 0.00 0.00 0.00 0.00 0.00 0.00 0.00 0.00 0.00 0.00 0.00 0.00 0.00 0.00 0.00
MSLP
1020.20 1020.30 1020.36 1020.38 1020.40 1020.50 1020.67 1020.81 1020.69 1021.62 1022.01 1022.32 1023.24 1023.46 1023.52 1023.37 1023.32 1023.36 1023.41 1023.16 1023.02 1023.40 1023.54 1023.65 1023.83 1024.12 1024.35 1024.68 1024.66 1024.78 1025.21 1025.60 1025.91 1026.30 1026.33 1026.41 1026.41 1026.33
1019.96 1020.07 1019.86 1020.05 1020.07 1020.12 1020.11 1020.15 1020.19 1020.40 1021.22 1021.82 1022.63 1023.24 1023.34 1023.55 1023.46 1023.61 1023.79 1023.52 1023.78 1023.96 1023.92 1024.16 1024.14 1024.29 1024.70 1025.01 1024.99 1025.09 1025.44 1025.73 1026.23 1026.56 1026.51 1026.56 1026.54 1026.54
1020.13 1020.30 1020.12 1020.03 1019.93 1019.97 1020.01 1020.10 1020.24 1020.41 1020.77 1022.17 1022.60 1023.27 1023.69 1023.75 1023.86 1023.96 1024.19 1024.21 1024.08 1024.17 1024.46 1024.46 1024.72 1024.78 1024.68 1025.20 1025.25 1025.55 1025.88 1026.06 1026.52 1026.75 1026.72 1026.82 1026.80 1026.77
1020.41 1020.54 1020.59 1020.45 1020.20 1020.04 1020.11 1019.99 1020.01 1019.82 1020.37 1021.48 1022.35 1023.17 1023.24 1023.74 1024.14 1024.28 1024.33 1024.64 1024.60 1024.73 1024.83 1024.85 1025.13 1024.93 1024.99 1025.36 1025.67 1025.86 1026.26 1026.49 1026.76 1026.96 1027.03 1027.03 1027.04 1026.99
1020.54 1020.82 1020.82 1020.53 1020.21 1020.28 1020.33 1020.13 1019.93 1019.76 1019.94 1020.79 1021.96 1022.73 1023.20 1022.90 1024.26 1024.21 1024.33 1024.73 1024.78 1024.91 1024.96 1024.99 1025.31 1025.28 1025.31 1025.71 1025.85 1026.19 1026.51 1026.72 1026.94 1027.08 1027.15 1027.15 1027.22 1027.20
1020.57 1020.77 1020.80 1020.84 1020.63 1020.37 1020.08 1019.98 1020.05 1020.11 1020.21 1020.77 1021.70 1022.34 1022.82 1023.41 1023.87 1024.22 1024.75 1024.86 1025.17 1025.22 1025.43 1025.46 1025.35 1025.35 1025.49 1025.64 1025.98 1026.16 1026.52 1026.73 1026.94 1027.03 1027.06 1027.17 1027.27 1027.32
1020.77 1020.80 1020.89 1020.92 1020.70 1020.40 1020.29 1020.21 1020.05 1020.39 1020.57 1020.95 1021.69 1022.35 1022.95 1023.52 1023.86 1024.19 1024.73 1025.38 1025.34 1025.49 1025.98 1025.83 1025.78 1025.90 1025.90 1025.80 1026.05 1026.09 1026.31 1026.63 1026.90 1026.89 1026.92 1027.04 1027.17 1027.27
1021.07 1021.18 1021.14 1020.99 1020.77 1020.56 1020.48 1020.28 1020.24 1020.29 1020.65 1021.14 1021.63 1022.05 1022.53 1022.95 1023.48 1024.21 1024.81 1025.64 1025.62 1025.33 1026.00 1025.91 1026.01 1026.10 1026.09 1026.03 1025.98 1026.00 1026.19 1026.53 1026.71 1026.77 1026.84 1026.94 1027.03 1027.13
1021.51 1021.42 1021.40 1021.04 1020.91 1020.91 1020.76 1020.60 1020.62 1020.69 1020.61 1020.84 1021.17 1021.59 1021.92 1022.21 1022.99 1023.97 1024.47 1025.00 1024.99 1025.53 1025.69 1026.08 1026.29 1026.38 1026.20 1025.88 1025.75 1025.84 1026.14 1026.43 1026.60 1026.63 1026.71 1026.76 1026.80 1027.07
1021.51 1021.45 1021.53 1021.18 1021.06 1021.16 1021.16 1021.32 1021.27 1021.10 1021.12 1020.90 1020.99 1021.39 1021.48 1021.84 1022.54 1023.23 1023.87 1024.68 1025.11 1025.51 1025.77 1026.45 1026.57 1026.57 1026.31 1026.06 1025.84 1025.84 1026.12 1026.37 1026.42 1026.41 1026.46 1026.45 1026.80 1027.02
1021.62 1021.73 1021.57 1021.34 1021.34 1021.39 1021.68 1021.87 1021.74 1021.76 1021.44 1021.13 1021.37 1021.36 1021.51 1021.87 1022.64 1023.32 1024.07 1024.69 1025.33 1025.63 1025.95 1026.35 1026.83 1026.84 1026.67 1026.48 1026.30 1025.97 1026.16 1026.30 1026.25 1026.11 1026.30 1026.51 1026.69 1026.72
1021.76 1021.73 1021.62 1021.51 1021.51 1021.64 1021.81 1021.92 1022.26 1022.40 1022.22 1022.36 1022.36 1022.44 1022.28 1022.36 1022.82 1023.31 1023.83 1024.75 1025.50 1025.93 1025.84 1026.50 1027.07 1027.17 1027.37 1026.86 1026.68 1026.60 1026.55 1026.36 1026.21 1026.25 1026.28 1026.38 1026.44 1026.79
1021.72 1021.70 1021.61 1021.57 1021.58 1021.63 1021.78 1022.07 1022.19 1022.32 1022.64 1022.84 1022.97 1023.11 1023.25 1023.34 1023.58 1023.91 1024.06 1024.46 1025.06 1025.41 1025.67 1026.22 1027.45 1027.52 1027.49 1027.35 1027.11 1027.01 1026.78 1026.77 1026.77 1026.77 1026.71 1026.65 1026.51 1026.50
1021.51 1021.49 1021.60 1021.57 1021.57 1021.65 1021.71 1021.81 1021.79 1022.18 1022.77 1022.96 1023.11 1023.49 1023.76 1023.86 1024.20 1024.34 1024.53 1024.72 1024.75 1024.98 1025.52 1026.24 1027.20 1027.37 1027.60 1027.87 1027.64 1027.20 1027.18 1026.97 1027.00 1027.00 1026.98 1026.82 1026.65 1026.58
1021.24 1021.37 1021.52 1021.57 1021.62 1021.65 1021.84 1021.80 1021.77 1022.24 1022.73 1023.13 1023.27 1023.54 1023.91 1023.80 1024.35 1024.83 1025.20 1025.19 1025.27 1025.44 1025.82 1026.09 1026.53 1027.13 1027.24 1027.65 1027.52 1027.50 1027.28 1027.15 1026.98 1027.26 1027.25 1027.19 1027.05 1026.76
1021.01 1021.23 1021.42 1021.53 1021.54 1021.67 1021.83 1021.95 1022.11 1022.28 1022.61 1022.90 1023.20 1023.46 1023.89 1024.04 1024.56 1025.10 1025.44 1025.49 1025.71 1025.80 1025.81 1025.91 1026.11 1026.34 1026.84 1026.98 1026.96 1027.15 1027.16 1027.36 1027.17 1027.20 1027.15 1026.86 1026.51 1026.25
1021.04 1021.29 1021.40 1021.55 1021.64 1021.76 1021.95 1022.11 1022.27 1022.37 1022.50 1022.70 1023.06 1023.37 1023.60 1023.98 1024.52 1025.00 1025.27 1025.66 1026.12 1025.96 1025.91 1025.76 1025.63 1025.88 1026.21 1026.36 1026.38 1026.38 1026.64 1026.76 1026.76 1026.65 1026.93 1026.69 1026.15 1025.85
1020.93 1021.12 1021.09 1021.25 1021.41 1021.57 1021.77 1021.91 1022.03 1022.11 1022.28 1022.49 1022.68 1022.86 1023.13 1023.72 1024.44 1024.93 1025.19 1025.67 1025.91 1025.90 1025.89 1025.64 1025.73 1025.98 1026.04 1025.39 1025.25 1025.68 1026.08 1026.20 1026.34 1026.65 1026.70 1026.31 1025.67 1025.17
1020.18 1020.58 1020.72 1020.80 1020.93 1021.09 1021.25 1021.47 1021.58 1021.64 1021.79 1022.02 1022.23 1022.56 1022.96 1023.49 1023.93 1024.57 1024.99 1025.33 1025.42 1025.49 1025.66 1025.49 1025.80 1025.95 1026.12 1025.93 1024.91 1024.51 1025.31 1025.52 1025.81 1025.95 1025.85 1025.74 1025.27 1024.56
1019.48 1019.83 1020.13 1020.27 1020.40 1020.59 1020.75 1020.92 1021.08 1021.21 1021.42 1021.56 1021.82 1022.11 1022.58 1023.06 1023.55 1023.89 1024.30 1024.59 1024.83 1024.95 1025.17 1025.24 1025.31 1025.24 1025.27 1025.22 1024.80 1024.48 1024.28 1024.91 1025.34 1025.66 1025.38 1025.00 1024.48 1023.70
1018.84 1019.12 1019.36 1019.67 1019.84 1020.02 1020.19 1020.27 1020.38 1020.52 1020.72 1020.98 1021.16 1021.48 1021.92 1022.42 1022.74 1023.04 1023.33 1023.61 1023.92 1024.16 1024.34 1024.20 1023.76 1023.85 1024.50 1024.79 1024.76 1024.30 1024.03 1023.88 1024.19 1024.63 1024.69 1024.69 1024.02 1023.36
1018.16 1018.35 1018.58 1018.82 1019.08 1019.21 1019.30 1019.39 1019.54 1019.69 1019.80 1020.07 1020.32 1020.66 1021.08 1021.49 1021.77 1022.05 1022.36 1022.61 1022.72 1022.89 1022.98 1023.09 1023.57 1023.79 1024.10 1024.06 1023.58 1023.55 1023.57 1023.61 1023.53 1023.44 1023.44 1023.58 1023.46 1023.08
1017.39 1017.54 1017.70 1017.84 1018.00 1018.19 1018.34 1018.48 1018.58 1018.68 1018.88 1019.07 1019.38 1019.77 1020.17 1020.50 1020.66 1020.86 1021.17 1021.44 1021.73 1021.96 1022.12 1022.54 1022.99 1023.29 1023.16 1023.12 1023.01 1022.87 1022.98 1023.17 1023.20 1023.08 1022.78 1022.35 1022.00 1021.63
Thickness
5615 5615 5614 5613 5612 5611 5608 5605 5606 5600 5599 5594 5583 5579 5577 5576 5574 5570 5565 5563 5561 5554 5549 5546 5541 5537 5534 5529 5529 5526 5522 5517 5512 5507 5506 5504 5504 5504
5608 5607 5608 5605 5606 5605 5603 5601 5599 5600 5599 5586 5576 5570 5566 5562 5561 5556 5552 5551 5545 5540 5538 5534 5532 5529 5524 5520 5520 5517 5513 5509 5503 5499 5499 5498 5497 5496
5594 5592 5594 5594 5595 5595 5593 5591 5588 5585 5586 5567 5565 5559 5551 5548 5546 5543 5538 5535 5534 5529 5524 5524 5519 5517 5517 5511 5510 5507 5502 5501 5495 5493 5492 5490 5489 5488
5584 5582 5581 5582 5583 5580 5577 5578 5577 5575 5570 5564 5554 5548 5546 5539 5534 5529 5527 5521 5519 5515 5512 5510 5507 5508 5507 5504 5500 5498 5493 5491 5487 5486 5484 5483 5482 5480
5572 5568 5565 5568 5571 5568 5565 5565 5565 5565 5565 5558 5547 5540 5536 5537 5523 5522 5519 5514 5510 5505 5503 5502 5497 5498 5498 5494 5492 5488 5485 5483 5480 5479 5478 5476 5474 5472
5562 5558 5557 5556 5557 5558 5559 5558 5555 5555 5553 5547 5538 5531 5528 5522 5518 5513 5508 5506 5501 5496 5491 5490 5491 5491 5490 5488 5484 5482 5479 5477 5474 5473 5472 5470 5467 5464
5552 5550 5547 5545 5546 5548 5547 5545 5545 5540 5536 5532 5524 5519 5513 5508 5508 5504 5499 5492 5491 5488 5482 5483 5483 5483 5482 5482 5477 5476 5474 5471 5468 5467 5466 5463 5460 5457
5538 5534 5532 5533 5533 5534 5532 5531 5529 5527 5522 5516 5511 5510 5505 5503 5499 5493 5487 5476 5480 5482 5474 5474 5474 5475 5475 5474 5472 5470 5468 5465 5463 5461 5459 5456 5453 5450
5520 5520 5518 5519 5518 5515 5514 5513 5511 5509 5509 5506 5503 5500 5499 5498 5492 5483 5478 5473 5474 5468 5468 5466 5465 5465 5466 5467 5465 5464 5462 5459 5457 5455 5453 5450 5447 5442
5508 5506 5502 5504 5502 5498 5495 5491 5490 5491 5491 5493 5491 5488 5489 5489 5484 5477 5472 5467 5464 5460 5459 5453 5455 5456 5458 5460 5458 5457 5455 5453 5451 5449 5447 5444 5438 5433
5493 5489 5488 5488 5486 5483 5477 5474 5474 5472 5474 5476 5475 5476 5477 5475 5471 5466 5460 5457 5452 5452 5450 5448 5446 5447 5448 5450 5450 5449 5448 5446 5445 5443 5439 5435 5430 5426
5477 5476 5476 5474 5472 5468 5464 5462 5458 5456 5458 5457 5457 5459 5462 5460 5457 5455 5453 5447 5442 5440 5443 5439 5437 5438 5434 5440 5441 5440 5440 5438 5437 5434 5430 5427 5422 5419
5465 5464 5463 5462 5460 5457 5454 5448 5447 5446 5445 5443 5443 5445 5445 5445 5444 5442 5442 5441 5434 5432 5436 5434 5426 5427 5425 5427 5430 5430 5431 5429 5427 5424 5420 5417 5413 5410
5456 5454 5451 5450 5449 5446 5444 5441 5440 5437 5434 5434 5435 5432 5431 5431 5430 5430 5431 5432 5433 5434 5431 5429 5421 5420 5413 5413 5417 5421 5422 5420 5417 5414 5410 5407 5404 5400
5447 5444 5441 5440 5438 5436 5434 5433 5434 5428 5427 5424 5425 5423 5422 5423 5421 5420 5419 5420 5423 5423 5422 5421 5420 5415 5412 5406 5406 5409 5410 5410 5409 5405 5400 5397 5394 5392
5439 5435 5432 5430 5428 5426 5425 5424 5421 5421 5419 5418 5417 5415 5413 5413 5412 5412 5409 5409 5409 5411 5413 5413 5413 5411 5408 5408 5407 5405 5402 5398 5400 5396 5392 5389 5387 5385
5428 5423 5421 5419 5417 5416 5414 5412 5410 5411 5411 5410 5409 5408 5408 5407 5406 5403 5402 5400 5399 5402 5403 5405 5405 5404 5403 5401 5397 5398 5393 5393 5391 5388 5382 5379 5379 5378
5419 5415 5415 5413 5410 5409 5407 5407 5405 5406 5406 5404 5404 5404 5405 5402 5398 5394 5393 5393 5391 5395 5397 5396 5396 5395 5393 5397 5397 5391 5386 5386 5383 5378 5374 5372 5371 5372
5416 5410 5407 5407 5405 5404 5403 5402 5401 5402 5401 5399 5400 5399 5397 5394 5394 5388 5387 5386 5386 5386 5386 5386 5385 5385 5382 5382 5389 5388 5384 5378 5374 5371 5369 5366 5364 5364
5414 5409 5404 5402 5400 5399 5398 5397 5396 5395 5394 5395 5394 5393 5391 5389 5385 5383 5383 5382 5382 5380 5379 5378 5378 5378 5378 5377 5379 5379 5378 5372 5367 5361 5360 5359 5360 5360
5410 5406 5402 5399 5397 5395 5394 5393 5393 5393 5392 5391 5390 5389 5387 5385 5383 5382 5381 5382 5380 5376 5376 5378 5380 5377 5373 5369 5368 5370 5369 5367 5363 5356 5352 5348 5349 5351
5405 5403 5400 5397 5394 5393 5392 5392 5391 5390 5390 5388 5387 5386 5384 5382 5381 5379 5378 5377 5378 5378 5375 5374 5371 5367 5363 5363 5366 5365 5361 5357 5355 5352 5349 5345 5340 5338
5400 5398 5397 5395 5393 5391 5390 5388 5388 5387 5386 5385 5383 5381 5379 5379 5378 5377 5376 5374 5373 5372 5371 5366 5361 5358 5358 5358 5358 5357 5354 5349 5346 5345 5344 5344 5343 5342